Mount Carmel, IL

12:08 PM CST on December 06, 2019 (GMT -0600)
Mount Carmel Municipal

Weather History for KAJG - October, 2019

Change the Weather History Date:

Tuesday, October 22, 2019

  Actual Average (KLWV) Record (KLWV)
Temperature  
Mean Temperature 50 °F -  
Max Temperature 61 °F 64 °F 84 °F (2015)
Min Temperature 40 °F 42 °F 28 °F (1997)
Degree Days  
Heating Degree Days 14    
Moisture  
Dew Point 39 °F    
Average Humidity 62    
Maximum Humidity 79    
Minimum Humidity 41    
Precipitation  
Precipitation 0.00 in - - ()
Sea Level Pressure  
Sea Level Pressure 29.87 in    
Wind  
Wind Speed 12 mph (WSW)    
Max Wind Speed 22 mph    
Max Gust Speed 26 mph    
Visibility 10 miles    
Events      
Averages and records for this station are not official NWS values.
T = Trace of Precipitation, MM = Missing Value Source: NWS Daily Summary

Daily Weather History Graph

Daily Weather History Graph

Search for Another Location

Airport or City:

Astronomy

Oct. 22, 2019 Rise Set
Actual Time 7:06 AM CDT 6:03 PM CDT
Civil Twilight 6:39 AM CDT 6:30 PM CDT
Nautical Twilight 6:08 AM CDT 7:01 PM CDT
Astronomical Twilight 5:38 AM CDT 7:31 PM CDT
Moon 12:22 AM CDT (10/22) 3:07 PM CDT (10/22)
Length of Visible Light 11h 50m
Length of Day
10h 56m
Last Quarter, 37% of the Moon is Illuminated
Oct 22
Last Quarter
Oct 27
New
Nov 4
First Quarter
Nov 12
Full
Nov 19
Last Quarter

Hourly Weather History & Observations

Time (CDT) Temp. Windchill Dew Point Humidity Pressure Visibility Wind Dir Wind Speed Gust Speed Precip Events Conditions
12:15 AM 53.1 °F - 46.2 °F 78% 29.79 in 10.0 mi South 9.2 mph - N/A   Clear
12:35 AM 52.0 °F - 45.7 °F 79% 29.78 in 10.0 mi South 9.2 mph - N/A   Clear
12:55 AM 52.9 °F - 44.8 °F 74% 29.77 in 10.0 mi SSW 10.4 mph - N/A   Clear
1:15 AM 53.6 °F - 44.1 °F 70% 29.77 in 10.0 mi SW 10.4 mph - N/A   Clear
1:35 AM 54.0 °F - 43.2 °F 67% 29.77 in 10.0 mi SW 12.7 mph - N/A   Clear
1:55 AM 53.6 °F - 42.8 °F 67% 29.76 in 10.0 mi SW 10.4 mph - N/A   Clear
2:15 AM 52.7 °F - 42.4 °F 68% 29.76 in 10.0 mi SW 10.4 mph - N/A   Clear
2:35 AM 52.3 °F - 42.1 °F 68% 29.76 in 10.0 mi SSW 10.4 mph - N/A   Clear
2:55 AM 52.0 °F - 41.9 °F 69% 29.76 in 10.0 mi SSW 10.4 mph - N/A   Clear
3:15 AM 52.0 °F - 41.5 °F 68% 29.76 in 10.0 mi SSW 12.7 mph - N/A   Clear
3:35 AM 52.2 °F - 41.2 °F 66% 29.77 in 10.0 mi SW 11.5 mph - N/A   Clear
3:55 AM 51.8 °F - 41.0 °F 67% 29.77 in 10.0 mi SW 11.5 mph - N/A   Clear
4:15 AM 50.2 °F - 40.8 °F 70% 29.78 in 10.0 mi SW 10.4 mph - N/A   Clear
4:35 AM 50.0 °F - 40.6 °F 70% 29.78 in 10.0 mi SW 10.4 mph - N/A   Clear
4:55 AM 49.6 °F - 40.5 °F 71% 29.79 in 10.0 mi SW 9.2 mph - N/A   Clear
5:15 AM 48.7 °F - 40.3 °F 73% 29.79 in 10.0 mi WSW 6.9 mph - N/A   Clear
5:55 AM 48.2 °F - 40.1 °F 74% 29.80 in 10.0 mi SW 9.2 mph - N/A   Clear
6:15 AM 47.5 °F - 39.9 °F 75% 29.80 in 10.0 mi SW 9.2 mph - N/A   Clear
6:35 AM 47.7 °F - 39.6 °F 73% 29.81 in 10.0 mi WSW 10.4 mph - N/A   Clear
6:50 AM 47.3 °F - 39.6 °F 74% 29.81 in 10.0 mi SW 9.2 mph - N/A   Clear
7:15 AM 46.4 °F 42.4 °F 39.6 °F 77% 29.82 in 10.0 mi SSW 8.1 mph - N/A   Clear
7:35 AM 47.5 °F - 40.3 °F 76% 29.83 in 10.0 mi SSW 9.2 mph - N/A   Mostly Cloudy
7:55 AM 48.4 °F - 40.6 °F 75% 29.84 in 10.0 mi SW 9.2 mph - N/A   Overcast
8:15 AM 49.1 °F - 40.6 °F 73% 29.84 in 10.0 mi SW 12.7 mph - N/A   Overcast
8:35 AM 49.5 °F - 40.5 °F 71% 29.85 in 10.0 mi SW 12.7 mph 18.4 mph N/A   Overcast
8:55 AM 51.3 °F - 41.0 °F 68% 29.85 in 10.0 mi SW 12.7 mph 20.7 mph N/A   Scattered Clouds
9:15 AM 52.3 °F - 40.8 °F 65% 29.86 in 10.0 mi WSW 10.4 mph - N/A   Clear
9:35 AM 53.2 °F - 40.8 °F 63% 29.86 in 10.0 mi WSW 13.8 mph - N/A   Clear
9:55 AM 53.8 °F - 40.5 °F 61% 29.86 in 10.0 mi WSW 15.0 mph 21.9 mph N/A   Clear
10:15 AM 54.5 °F - 41.0 °F 60% 29.86 in 10.0 mi WSW 17.3 mph 26.5 mph N/A   Scattered Clouds
10:35 AM 55.0 °F - 40.3 °F 58% 29.86 in 10.0 mi WSW 21.9 mph - N/A   Scattered Clouds
10:55 AM 55.9 °F - 40.8 °F 57% 29.87 in 10.0 mi WSW 18.4 mph 24.2 mph N/A   Scattered Clouds
11:15 AM 56.8 °F - 41.5 °F 57% 29.87 in 10.0 mi SW 18.4 mph 25.3 mph N/A   Scattered Clouds
11:35 AM 57.2 °F - 41.0 °F 55% 29.87 in 10.0 mi WSW 19.6 mph - N/A   Scattered Clouds
11:55 AM 57.4 °F - 40.3 °F 53% 29.88 in 10.0 mi West 18.4 mph 24.2 mph N/A   Scattered Clouds
12:15 PM 57.2 °F - 40.6 °F 54% 29.88 in 10.0 mi WSW 16.1 mph 25.3 mph N/A   Mostly Cloudy
12:35 PM 58.8 °F - 41.0 °F 52% 29.87 in 10.0 mi WSW 21.9 mph 25.3 mph N/A   Overcast
12:55 PM 57.9 °F - 40.8 °F 53% 29.87 in 10.0 mi West 18.4 mph - N/A   Mostly Cloudy
1:15 PM 59.9 °F - 40.8 °F 49% 29.86 in 10.0 mi WSW 21.9 mph 26.5 mph N/A   Mostly Cloudy
1:35 PM 59.0 °F - 40.6 °F 51% 29.86 in 10.0 mi WSW 20.7 mph 25.3 mph N/A   Scattered Clouds
1:55 PM 60.6 °F - 40.1 °F 47% 29.86 in 10.0 mi WSW 20.7 mph 25.3 mph N/A   Scattered Clouds
2:15 PM 60.1 °F - 39.0 °F 46% 29.86 in 10.0 mi West 20.7 mph 25.3 mph N/A   Clear
2:55 PM 60.8 °F - 38.7 °F 44% 29.86 in 10.0 mi WSW 21.9 mph 25.3 mph N/A   Scattered Clouds
3:15 PM 60.8 °F - 38.1 °F 43% 29.87 in 10.0 mi West 21.9 mph - N/A   Clear
3:35 PM 60.6 °F - 37.2 °F 42% 29.87 in 10.0 mi West 19.6 mph 25.3 mph N/A   Clear
3:55 PM 60.8 °F - 37.9 °F 43% 29.87 in 10.0 mi West 19.6 mph 24.2 mph N/A   Clear
4:15 PM 60.4 °F - 37.6 °F 43% 29.88 in 10.0 mi WSW 18.4 mph 21.9 mph N/A   Clear
4:35 PM 60.3 °F - 36.5 °F 41% 29.88 in 10.0 mi West 18.4 mph - N/A   Clear
4:55 PM 59.9 °F - 36.9 °F 42% 29.88 in 10.0 mi WSW 19.6 mph 25.3 mph N/A   Clear
5:15 PM 58.8 °F - 36.7 °F 44% 29.89 in 10.0 mi WSW 16.1 mph 23.0 mph N/A   Scattered Clouds
5:35 PM 58.3 °F - 36.3 °F 44% 29.90 in 10.0 mi West 20.7 mph - N/A   Scattered Clouds
5:55 PM 56.7 °F - 36.7 °F 47% 29.91 in 10.0 mi West 12.7 mph - N/A   Scattered Clouds
6:15 PM 53.1 °F - 37.8 °F 56% 29.91 in 10.0 mi WSW 6.9 mph - N/A   Clear
6:35 PM 51.4 °F - 37.4 °F 59% 29.92 in 10.0 mi SW 6.9 mph - N/A   Clear
6:55 PM 50.9 °F - 36.5 °F 58% 29.93 in 10.0 mi WSW 6.9 mph - N/A   Clear
7:15 PM 50.4 °F - 36.3 °F 59% 29.94 in 10.0 mi WSW 8.1 mph - N/A   Clear
7:35 PM 48.4 °F - 36.0 °F 62% 29.95 in 10.0 mi West 9.2 mph - N/A   Clear
7:55 PM 48.4 °F - 35.6 °F 61% 29.96 in 10.0 mi WSW 9.2 mph - N/A   Clear
8:15 PM 48.2 °F - 34.7 °F 60% 29.96 in 10.0 mi WSW 8.1 mph - N/A   Clear
8:35 PM 45.5 °F 41.3 °F 34.0 °F 64% 29.97 in 10.0 mi WSW 8.1 mph - N/A   Clear
8:55 PM 46.2 °F 42.2 °F 33.6 °F 61% 29.97 in 10.0 mi West 8.1 mph - N/A   Clear
9:15 PM 45.1 °F 40.8 °F 33.1 °F 63% 29.98 in 10.0 mi West 8.1 mph - N/A   Clear
9:35 PM 45.3 °F 41.6 °F 32.7 °F 61% 29.99 in 10.0 mi West 6.9 mph - N/A   Clear
9:55 PM 43.5 °F 38.9 °F 33.1 °F 67% 29.99 in 10.0 mi West 8.1 mph - N/A   Clear
10:15 PM 43.2 °F 38.4 °F 32.2 °F 65% 30.00 in 10.0 mi West 8.1 mph - N/A   Clear
10:35 PM 43.7 °F 39.7 °F 32.4 °F 64% 30.00 in 10.0 mi West 6.9 mph - N/A   Clear
10:55 PM 41.9 °F 36.9 °F 32.0 °F 68% 30.01 in 10.0 mi WSW 8.1 mph - N/A   Clear
11:15 PM 41.4 °F 36.8 °F 32.0 °F 69% 30.01 in 10.0 mi West 6.9 mph - N/A   Clear
11:35 PM 41.0 °F 37.1 °F 32.0 °F 70% 30.01 in 10.0 mi West 5.8 mph - N/A   Clear
11:55 PM 40.1 °F 35.3 °F 32.2 °F 73% 30.01 in 10.0 mi WSW 6.9 mph - N/A   Clear